sat.trackr.live / text

‹ back to catalog

TIANYAN 01

NORAD 44881 · 2019-093C

PAYLOAD ACTIVE UNKNOWN

§ Identity

Operator
Country
PRC
Launch date
2019-12-20
Launch site
TAISC
Launch vehicle
Mass (kg)
RCS (m²)

Purposes: comms

External: N2YO · Heavens-Above · Gunter

§ Orbital elements

Epoch: 2026-09-20T03:40:55.912224Z

Period
96.86 min
Inclination
97.7446°
Eccentricity
0.0014586
Mean motion
14.86638406 rev/d
Perigee alt
598.3 km
Apogee alt
618.6 km
Semi-major
6,986.6 km
B*
7.7760e-5
RAAN
333.0332°
Arg perigee
130.1550°
Mean anomaly
230.0946°
Rev number
36,552

§ Raw data

TIANYAN 011 44881U 19093C   26263.15342491  .00000638  00000+0  77760-4 0  99922 44881  97.7446 333.0332 0014586 130.1550 230.0946 14.86638406365521

JSON: /api/v1/satellites/44881 · /tle

For live sub-satellite position, see the globe view (requires WebGL).

§ Visibility from observer

Set your observer location to see the next 7 days of passes ≥ 10°. The values pass through the URL so the page stays shareable.

No JS? Fill the form by hand. The geolocation button needs JavaScript.

§ Radio — SatNOGS DB

ModeDescriptionDownlinkUplink
USB Mode U/V Linear Transponder 145.915 MHz–145.935 MHz 435.270 MHz–435.290 MHz
CW Mode V CW TLM 145.910 MHz
GMSK Mode V GMSK4k8 AX.25 TLM 145.890 MHz
FM S-band telemetry 2.278 GHz
FM Transmitter 401.545-401.555 401.550 MHz

5 transmitters · refreshed weekly from db.satnogs.org